Powrót do katalogu

STARLINK-36275

AktywnyŁącznośćVLEO
NORAD 68702·PAYLOAD·🇺🇸 United States

Wystrzelony Apr 14, 2026 z Cape Canaveral Space Force Station

Loading…

Następne Przeloty (najbliższe 24 godziny)

TLE

ŚwieżeSource: CelesTrak SupGP

Epoka: Sep 14, 2026, 23:03 UTC

1 68702C 26081D   26257.96090278  .00016728  00000+0  49402-3 0  2575
2 68702  53.1572 231.8997 0001289 103.4708 278.4388 15.34396789    16

Śledź STARLINK-36275 w czasie rzeczywistym z AllMySat

Download on the App Store